| time (UTC) | temp F | wind direction | speed MPH | gust MPH | rain 1hr in | rain 24hr in | rain mn in | humidity % | barometer mb |
| 20260905011549 | 52 | 313 | 0.0 | 3.0 | 0.00 | 0.01 | 0.01 | 74 | 1009.3 |
| 20260905010051 | 53 | 306 | 0.0 | 2.0 | 0.00 | 0.01 | 0.01 | 70 | 1009.1 |
| 20260905004545 | 54 | 319 | 2.0 | 5.0 | 0.00 | 0.01 | 0.01 | 67 | 1008.7 |
| 20260905003043 | 56 | 225 | 0.0 | 4.0 | 0.00 | 0.01 | 0.01 | 61 | 1008.3 |
| 20260905001542 | 56 | 155 | 1.0 | 9.0 | 0.00 | 0.01 | 0.01 | 60 | 1008.2 |
| 20260905000041 | 56 | 146 | 6.0 | 12.0 | 0.00 | 0.01 | 0.01 | 60 | 1007.9 |
| 20260904234545 | 56 | 140 | 8.0 | 13.0 | 0.00 | 0.01 | 0.01 | 59 | 1007.9 |
| 20260904233039 | 56 | 142 | 5.0 | 14.0 | 0.00 | 0.01 | 0.01 | 59 | 1007.7 |
| 20260904231539 | 56 | 132 | 6.0 | 13.0 | 0.00 | 0.01 | 0.01 | 60 | 1007.6 |
| 20260904230038 | 56 | 139 | 7.0 | 12.0 | 0.00 | 0.01 | 0.01 | 60 | 1007.6 |
| 20260904224542 | 56 | 159 | 6.0 | 13.0 | 0.00 | 0.01 | 0.01 | 64 | 1007.6 |
| 20260904223036 | 55 | 134 | 7.0 | 15.0 | 0.00 | 0.01 | 0.01 | 60 | 1007.7 |
| 20260904221536 | 55 | 131 | 5.0 | 13.0 | 0.00 | 0.01 | 0.01 | 64 | 1007.5 |
| 20260904220054 | 55 | 147 | 5.0 | 14.0 | 0.00 | 0.01 | 0.01 | 63 | 1007.3 |
| 20260904214538 | 56 | 147 | 10.0 | 16.0 | 0.00 | 0.01 | 0.01 | 60 | 1007.3 |
| 20260904213034 | 55 | 143 | 5.0 | 11.0 | 0.00 | 0.01 | 0.01 | 66 | 1007.0 |
| 20260904211536 | 55 | 311 | 3.0 | 5.0 | 0.00 | 0.01 | 0.01 | 63 | 1007.0 |
| 20260904210040 | 55 | 274 | 0.0 | 2.0 | 0.00 | 0.01 | 0.01 | 64 | 1007.0 |
| 20260904204530 | 54 | 281 | 0.0 | 2.0 | 0.00 | 0.01 | 0.01 | 65 | 1006.9 |
| 20260904203042 | 54 | 299 | 1.0 | 7.0 | 0.00 | 0.01 | 0.01 | 66 | 1007.1 |
| 20260904201529 | 54 | 344 | 1.0 | 4.0 | 0.00 | 0.01 | 0.01 | 66 | 1006.9 |
| 20260904200029 | 54 | 315 | 2.0 | 5.0 | 0.00 | 0.01 | 0.01 | 67 | 1007.1 |
| 20260904194528 | 54 | 344 | 0.0 | 4.0 | 0.00 | 0.01 | 0.01 | 66 | 1007.2 |
| 20260904193031 | 53 | 309 | 1.0 | 3.0 | 0.00 | 0.01 | 0.01 | 66 | 1007.3 |
| 20260904191537 | 53 | 328 | 0.0 | 4.0 | 0.00 | 0.01 | 0.01 | 68 | 1007.3 |
| 20260904190035 | 53 | 198 | 0.0 | 1.0 | 0.00 | 0.01 | 0.01 | 67 | 1007.5 |
| 20260904184530 | 52 | 157 | 1.0 | 6.0 | 0.00 | 0.01 | 0.01 | 67 | 1007.6 |
| 20260904183025 | 52 | 124 | 6.0 | 11.0 | 0.00 | 0.01 | 0.01 | 65 | 1007.7 |
| 20260904181524 | 52 | 124 | 5.0 | 10.0 | 0.00 | 0.01 | 0.01 | 67 | 1007.5 |
| 20260904180022 | 52 | 140 | 8.0 | 11.0 | 0.00 | 0.01 | 0.01 | 70 | 1007.6 |
| 20260904174522 | 52 | 171 | 5.0 | 11.0 | 0.00 | 0.01 | 0.01 | 63 | 1007.4 |
| 20260904173035 | 52 | 167 | 3.0 | 13.0 | 0.00 | 0.01 | 0.01 | 68 | 1007.2 |
| 20260904171524 | 52 | 159 | 9.0 | 14.0 | 0.00 | 0.01 | 0.01 | 66 | 1007.1 |
| 20260904170020 | 53 | 138 | 9.0 | 14.0 | 0.00 | 0.01 | 0.01 | 64 | 1006.8 |
| 20260904164518 | 53 | 131 | 3.0 | 10.0 | 0.00 | 0.01 | 0.01 | 71 | 1006.8 |
| 20260904163018 | 52 | 165 | 7.0 | 16.0 | 0.00 | 0.01 | 0.01 | 71 | 1006.9 |
| 20260904161520 | 50 | 167 | 6.0 | 13.0 | 0.00 | 0.01 | 0.01 | 76 | 1007.0 |
| 20260904160017 | 48 | 146 | 1.0 | 4.0 | 0.00 | 0.01 | 0.01 | 89 | 1006.9 |
| 20260904154522 | 47 | 170 | 0.0 | 2.0 | 0.00 | 0.01 | 0.01 | 90 | 1007.0 |
| 20260904153015 | 46 | 173 | 0.0 | 4.0 | 0.00 | 0.01 | 0.01 | 90 | 1006.8 |
| 20260904151516 | 45 | 174 | 0.0 | 2.0 | 0.00 | 0.01 | 0.01 | 93 | 1006.8 |
| 20260904150022 | 45 | 171 | 1.0 | 4.0 | 0.00 | 0.01 | 0.01 | 92 | 1006.8 |
| 20260904144513 | 44 | 147 | 0.0 | 3.0 | 0.00 | 0.01 | 0.01 | 93 | 1006.6 |
| 20260904143011 | 44 | 147 | 0.0 | 0.0 | 0.00 | 0.01 | 0.01 | 94 | 1006.5 |
| 20260904141516 | 43 | 147 | 0.0 | 2.0 | 0.00 | 0.01 | 0.01 | 93 | 1006.2 |
| 20260904140012 | 43 | 147 | 0.0 | 1.0 | 0.00 | 0.01 | 0.01 | 92 | 1006.2 |
| 20260904134508 | 43 | 147 | 0.0 | 1.0 | 0.00 | 0.02 | 0.01 | 93 | 1006.2 |
| 20260904133010 | 43 | 147 | 0.0 | 2.0 | 0.00 | 0.02 | 0.01 | 92 | 1006.0 |
| 20260904131507 | 43 | 147 | 0.0 | 1.0 | 0.00 | 0.02 | 0.01 | 91 | 1006.0 |
| 20260904130004 | 43 | 147 | 0.0 | 1.0 | 0.00 | 0.03 | 0.01 | 91 | 1005.5 |
| 20260904124503 | 43 | 147 | 0.0 | 2.0 | 0.00 | 0.03 | 0.01 | 90 | 1005.5 |
| 20260904123002 | 43 | 147 | 0.0 | 1.0 | 0.00 | 0.03 | 0.01 | 89 | 1005.4 |
| 20260904121502 | 43 | 103 | 0.0 | 3.0 | 0.00 | 0.03 | 0.01 | 88 | 1005.3 |
| 20260904120110 | 43 | 80 | 1.0 | 2.0 | 0.00 | 0.03 | 0.01 | 89 | 1005.2 |
| 20260904114559 | 43 | 67 | 1.0 | 2.0 | 0.00 | 0.03 | 0.01 | 90 | 1004.9 |
| 20260904113058 | 44 | 329 | 0.0 | 0.0 | 0.01 | 0.03 | 0.01 | 90 | 1005.4 |
| 20260904111554 | 44 | 329 | 0.0 | 2.0 | 0.01 | 0.03 | 0.01 | 89 | 1005.3 |
| 20260904110051 | 45 | 326 | 1.0 | 2.0 | 0.01 | 0.03 | 0.01 | 87 | 1005.1 |
| 20260904104547 | 46 | 320 | 1.0 | 3.0 | 0.01 | 0.03 | 0.01 | 83 | 1004.6 |
| 20260904103042 | 48 | 248 | 1.0 | 5.0 | 0.00 | 0.02 | 0.00 | 77 | 1004.4 |
| 20260904101539 | 50 | 248 | 0.0 | 7.0 | 0.00 | 0.02 | 0.00 | 70 | 1003.8 |
| 20260904100037 | 51 | 241 | 0.0 | 4.0 | 0.00 | 0.02 | 0.00 | 66 | 1003.3 |
| 20260904094540 | 52 | 194 | 0.0 | 6.0 | 0.00 | 0.02 | 0.00 | 64 | 1003.0 |
| 20260904093029 | 53 | 241 | 0.0 | 2.0 | 0.00 | 0.02 | 0.00 | 62 | 1002.8 |
| 20260904091534 | 52 | 170 | 1.0 | 3.0 | 0.00 | 0.02 | 0.00 | 60 | 1002.6 |
| 20260904090026 | 53 | 149 | 0.0 | 0.0 | 0.00 | 0.02 | 0.00 | 57 | 1002.4 |
| 20260904084524 | 53 | 149 | 0.0 | 1.0 | 0.00 | 0.02 | 0.00 | 56 | 1002.0 |
| 20260904083023 | 54 | 149 | 0.0 | 2.0 | 0.00 | 0.02 | 0.00 | 55 | 1001.9 |
| 20260904081523 | 54 | 144 | 0.0 | 3.0 | 0.00 | 0.02 | 0.00 | 54 | 1001.8 |
| 20260904080020 | 54 | 135 | 0.0 | 2.0 | 0.00 | 0.02 | 0.00 | 54 | 1001.9 |
| 20260904074519 | 53 | 136 | 0.0 | 1.0 | 0.00 | 0.02 | 0.00 | 55 | 1001.9 |
| 20260904073019 | 54 | 149 | 0.0 | 2.0 | 0.00 | 0.02 | 0.00 | 55 | 1002.0 |
| 20260904071518 | 54 | 140 | 2.0 | 8.0 | 0.00 | 0.02 | 0.00 | 54 | 1002.2 |
| 20260904070017 | 54 | 145 | 2.0 | 7.0 | 0.00 | 0.02 | 0.00 | 53 | 1002.4 |
| 20260904064522 | 54 | 146 | 1.0 | 8.0 | 0.00 | 0.02 | 0.00 | 54 | 1002.6 |
| 20260904063024 | 53 | 91 | 1.0 | 2.0 | 0.00 | 0.02 | 0.00 | 54 | 1002.6 |
| 20260904061514 | 53 | 98 | 0.0 | 2.0 | 0.00 | 0.02 | 0.00 | 55 | 1002.6 |
| 20260904060010 | 54 | 145 | 0.0 | 2.0 | 0.00 | 0.02 | 0.00 | 55 | 1003.1 |
| 20260904054509 | 54 | 145 | 0.0 | 4.0 | 0.00 | 0.02 | 0.02 | 54 | 1003.3 |
| 20260904053008 | 55 | 132 | 2.0 | 10.0 | 0.00 | 0.02 | 0.02 | 53 | 1003.5 |
| 20260904051505 | 55 | 165 | 2.0 | 8.0 | 0.00 | 0.02 | 0.02 | 52 | 1003.7 |
| 20260904050003 | 55 | 157 | 4.0 | 13.0 | 0.00 | 0.02 | 0.02 | 51 | 1003.9 |
| 20260904044507 | 55 | 125 | 1.0 | 6.0 | 0.00 | 0.02 | 0.02 | 51 | 1004.0 |
| 20260904043006 | 56 | 154 | 5.0 | 11.0 | 0.00 | 0.02 | 0.02 | 49 | 1004.1 |
| 20260904041502 | 56 | 119 | 4.0 | 13.0 | 0.00 | 0.02 | 0.02 | 49 | 1004.2 |
| 20260904040002 | 56 | 134 | 0.0 | 2.0 | 0.00 | 0.02 | 0.02 | 50 | 1004.0 |
| 20260904034501 | 56 | 102 | 0.0 | 5.0 | 0.00 | 0.02 | 0.02 | 50 | 1003.8 |
| 20260904033101 | 56 | 88 | 1.0 | 3.0 | 0.00 | 0.02 | 0.02 | 50 | 1003.9 |
| 20260904031603 | 55 | 105 | 1.0 | 2.0 | 0.00 | 0.02 | 0.02 | 51 | 1004.1 |
| 20260904030058 | 55 | 136 | 0.0 | 4.0 | 0.00 | 0.02 | 0.02 | 52 | 1004.3 |
| 20260904024606 | 55 | 140 | 0.0 | 1.0 | 0.00 | 0.02 | 0.02 | 52 | 1004.2 |
| 20260904023058 | 56 | 140 | 0.0 | 7.0 | 0.00 | 0.02 | 0.02 | 52 | 1004.3 |
| 20260904021558 | 56 | 142 | 0.0 | 7.0 | 0.00 | 0.02 | 0.02 | 52 | 1004.2 |
| 20260904020056 | 56 | 129 | 0.0 | 5.0 | 0.00 | 0.02 | 0.02 | 51 | 1004.4 |
| 20260904014556 | 56 | 139 | 2.0 | 5.0 | 0.00 | 0.02 | 0.02 | 51 | 1004.4 |
| 20260904013113 | 56 | 144 | 2.0 | 6.0 | 0.00 | 0.02 | 0.02 | 51 | 1004.5 |